Tracking 20040 objects as of 18-Nov-2019
Live streaming from Space Station
objects crossing your sky now

DMSP 5D-2 F11 DEB

Track DMSP 5D-2 F11 DEB now!
10-day predictions


NORAD ID: 29089
Int'l Code: 1991-082CJ
Perigee: 600.9 km
Apogee: 614.4 km
Inclination: 98.6 °
Period: 96.7 minutes
Semi major axis: 6978 km
RCS: 0.0065 m2 (small)
Launch date: November 28, 1991
Source: United States (US)
Launch site: AIR FORCE WESTERN TEST RANGE (AFWTR)

Note: This is SATELLITE DEBRIS
aabbcc
Your satellite tracking list
Your tracking list is empty




NASA's NSSDC Master Catalog

Two Line Element Set (TLE):
1 29089U 91082CJ  19321.41754851  .00009122  00000-0  97050-3 0  9997
2 29089  98.6001 129.7605 0009634 248.4909 143.5993 14.89178510813563
Source of the keplerian elements: AFSPC